[[{"header":{"parameterUnit":"m.s-1","parameterCategory":1,"la1":30.2991,"la2":30.254,"lo1":-89.0895,"lo2":-89.0444,"dy":0.0017,"dx":0.0017,"nx":28,"ny":28,"refTime":"2024-06-04T09:00:00:Z","depth":0,"parameterNumber":2,"parameterNumberName":"U-component_of_WINDS"},"data":[0,0,0,0,0,0,0,0,0,0,0,0,0,0,0,0,0,0,0,0,0,0,0,0,0,0,0,0,0,0,0,0,0,0,0,0,0,0,0,0,0,0,0,0,0,0,0,0,0,0,0,0,0,0,0,0,0,0,-2.275,-2.2751,0,-2.2822,-2.2822,-2.2823,-2.2831,-2.283,-2.2829,-2.2829,-2.2901,-2.2903,-2.2906,0,0,0,0,0,0,0,0,0,0,0,0,0,-2.2621,-2.2623,-2.275,-2.2751,-2.2752,-2.2822,-2.2823,-2.2823,-2.2831,-2.283,-2.2829,-2.2828,-2.29,-2.2903,-2.2906,0,0,0,0,0,0,0,0,0,0,0,0,0,-2.2683,-2.2624,-2.275,-2.2764,-2.2766,-2.2821,-2.2823,-2.2824,-2.2831,-2.283,-2.2829,-2.2828,-2.2899,-2.2903,-2.2907,-2.2952,0,0,-2.2918,-2.292,0,0,0,0,0,0,0,0,-2.2679,-2.2688,-2.2761,-2.2763,-2.2766,-2.2816,-2.2803,-2.2867,-2.2831,-2.2806,-2.2829,-2.2827,-2.2873,-2.2879,-2.2895,-2.2956,-2.2959,-2.2919,-2.2921,-2.2923,-2.2924,0,0,0,0,0,0,0,-2.2675,-2.2685,-2.2779,-2.2762,-2.2765,-2.2767,-2.2775,-2.2815,-2.2845,-2.2808,-2.2809,-2.2818,-2.2874,-2.2891,-2.2897,-2.296,-2.2919,-2.2922,-2.2925,-2.2926,-2.3062,-2.3064,0,0,0,0,0,0,-2.2668,-2.2681,-2.2776,-2.2781,-2.2719,-2.277,-2.2779,-2.2801,-2.2845,-2.285,-2.2818,-2.2818,-2.2885,-2.2892,-2.2899,-2.2956,-2.2923,-2.2926,-2.2929,-2.3061,-2.3063,-2.3064,0,0,0,0,0,0,-2.2665,-2.2677,-2.2773,-2.2731,-2.2744,-2.2774,-2.2799,-2.2803,-2.282,-2.2852,-2.2858,-2.283,-2.2885,-2.2894,-2.2939,-2.2959,-2.2928,-2.2932,-2.306,-2.3062,-2.3063,-2.307,0,0,0,0,0,0,-2.2662,-2.2676,-2.2693,-2.2731,-2.2746,-2.2812,-2.28,-2.2805,-2.2827,-2.2826,-2.2865,-2.287,-2.2885,-2.2934,-2.2943,-2.2963,-2.2935,-2.3058,-2.3061,-2.3063,-2.3068,-2.3071,-2.3075,0,0,0,0,0,-2.2657,-2.2692,-2.2694,-2.2705,-2.2768,-2.2813,-2.2821,-2.2838,-2.2828,-2.2846,-2.2867,-2.2869,-2.2955,-2.2938,-2.2949,-2.2971,-2.3057,-2.306,-2.3063,-2.3066,-2.3071,-2.3075,0,0,0,0,0,0,-2.2654,-2.2697,-2.27,-2.2748,-2.2777,-2.2814,-2.2837,-2.2842,-2.2874,-2.2872,-2.2891,-2.2899,-2.2944,-2.2962,-2.2942,-2.3018,-2.3005,-2.301,-2.3004,-2.3009,-2.3012,-2.3006,-2.2938,0,0,0,0,0,-2.266,-2.2692,-2.2728,-2.2767,-2.2781,-2.2807,-2.2827,-2.2837,-2.2868,-2.288,-2.2904,-2.2934,-2.2967,-2.2989,-2.3022,-2.3071,-2.3079,-2.3091,-2.3095,-2.3098,-2.3101,-2.3129,-2.3134,-2.3074,-2.3074,-2.3074,0,0,-2.267,-2.2698,-2.2717,-2.2767,-2.2791,-2.2824,-2.2817,-2.2853,-2.2878,-2.2885,-2.2929,-2.2949,-2.2983,-2.303,-2.3052,-2.3047,-2.312,-2.3101,-2.3103,-2.3106,-2.3132,-2.3138,-2.3143,-2.3076,-2.3075,-2.3075,0,0,-2.2707,-2.2731,-2.2766,-2.279,-2.2826,-2.2843,-2.2852,-2.2889,-2.2902,-2.2947,-2.2953,-2.2984,-2.3041,-2.3066,-2.3086,-2.3133,-2.3135,-2.3143,-2.3161,-2.3187,-2.3192,-2.3196,-2.3213,-2.3218,-2.3147,-2.3147,-2.3147,0,-2.2715,-2.2766,-2.2784,-2.2819,-2.2841,-2.285,-2.2886,-2.2909,-2.2954,-2.2969,-2.2962,-2.3036,-2.3059,-2.3112,-2.3124,-2.314,-2.315,-2.3138,-2.319,-2.3194,-2.3199,-2.3214,-2.3221,-2.3148,-2.3148,-2.3148,-2.3148,0,-2.2775,-2.281,-2.2834,-2.2878,-2.2903,-2.2938,-2.2961,-2.2984,-2.2993,-2.3011,-2.3057,-2.3086,-2.3125,-2.3139,-2.3147,-2.3193,-2.3189,-2.3186,-2.3173,-2.3205,-2.322,-2.3226,-2.3149,-2.3149,-2.3148,-2.3148,0,0,-2.281,-2.2864,-2.2872,-2.2892,-2.2933,-2.2961,-2.2998,-2.3036,-2.3056,-2.3087,-2.3118,-2.3167,-2.3165,-2.3188,-2.3199,-2.3222,-2.3258,-2.3217,-2.3218,-2.3223,-2.331,-2.3312,-2.3318,-2.326,-2.3262,-2.3263,-2.3307,0,-2.2851,-2.2916,-2.2933,-2.2988,-2.3021,-2.3031,-2.3063,-2.3091,-2.3109,-2.314,-2.316,-2.3195,-2.3189,-2.3203,-2.3227,-2.3248,-2.3275,-2.3246,-2.3289,-2.329,-2.3279,-2.3327,-2.3328,-2.3369,-2.3313,-2.3315,-2.3315,0,-2.2907,-2.2939,-2.2997,-2.3035,-2.3049,-2.3077,-2.3115,-2.3144,-2.3177,-2.3189,-2.3215,-2.3224,-2.3263,-2.3249,-2.3302,-2.3282,-2.3301,-2.3314,-2.3316,-2.332,-2.3304,-2.3331,-2.3382,-2.3388,-2.3325,-2.3324,-2.3323,0,-2.2926,-2.2985,-2.3027,-2.3044,-2.3089,-2.3108,-2.3128,-2.316,-2.3182,-2.3215,-2.323,-2.3267,-2.3287,-2.3315,-2.3334,-2.3323,-2.3386,-2.3374,-2.3396,-2.3396,-2.3408,-2.3407,-2.3462,-2.3422,-2.3422,-2.3422,-2.3421,0,-2.2969,-2.3004,-2.3036,-2.3062,-2.3102,-2.3123,-2.3162,-2.3182,-2.321,-2.3241,-2.3252,-2.328,-2.3304,-2.3336,-2.3351,-2.3393,-2.3402,-2.3412,-2.3416,-2.3411,-2.3409,-2.3422,-2.342,-2.3423,-2.3423,-2.3423,-2.3422,0,-2.2997,-2.302,-2.3067,-2.3106,-2.3117,-2.3144,-2.3178,-2.3203,-2.3222,-2.326,-2.3271,-2.33,-2.3338,-2.336,-2.3408,-2.3419,-2.3464,-2.3467,-2.3453,-2.3455,-2.3475,-2.3473,-2.354,-2.355,-2.3504,-2.3504,-2.3505,0,-2.3022,-2.305,-2.3092,-2.3113,-2.3133,-2.3167,-2.319,-2.3211,-2.3235,-2.3275,-2.3296,-2.3335,-2.3367,-2.3427,-2.3452,-2.3489,-2.3492,-2.3513,-2.3498,-2.3492,-2.3492,-2.3489,-2.3492,-2.3515,-2.3516,-2.3516,-2.3517,0,-2.3065,-2.3076,-2.3108,-2.3146,-2.3173,-2.3203,-2.3233,-2.325,-2.3276,-2.3303,-2.3341,-2.3366,-2.3415,-2.3453,-2.3492,-2.3513,-2.3519,-2.3522,-2.3529,-2.3523,-2.3514,-2.3519,-2.346,-2.352,-2.3519,-2.3519,-2.3519,-2.3519,-2.3093,-2.3118,-2.3151,-2.3187,-2.3213,-2.3241,-2.3267,-2.3289,-2.3322,-2.3364,-2.3375,-2.3415,-2.3448,-2.3502,-2.3523,-2.3555,-2.3552,-2.3562,-2.3564,-2.3566,-2.3567,-2.3509,-2.3562,-2.3562,-2.3562,-2.3562,-2.3562,0,-2.3136,-2.3158,-2.3191,-2.3233,-2.3262,-2.3266,-2.33,-2.3324,-2.3359,-2.339,-2.3421,-2.3466,-2.3503,-2.3532,-2.3571,-2.3591,-2.3595,-2.36,-2.3598,-2.3603,-2.3568,-2.3558,-2.3596,-2.3596,-2.3596,-2.3596,-2.3596,-2.3596,-2.3161,-2.3204,-2.3218,-2.3273,-2.3295,-2.3335,-2.3354,-2.338,-2.3405,-2.3454,-2.3485,-2.3504,-2.3534,-2.3575,-2.3609,-2.3617,-2.363,-2.3635,-2.3643,-2.3609,-2.3605,-2.3602,-2.3592,-2.3638,-2.3638,-2.3676,-2.3676,-2.3676]},{"header":{"parameterUnit":"m.s-1","parameterCategory":1,"la1":30.2991,"la2":30.254,"lo1":-89.0895,"lo2":-89.0444,"dy":0.0017,"dx":0.0017,"nx":28,"ny":28,"refTime":"2024-06-04T09:00:00:Z","depth":0,"parameterNumber":3,"parameterNumberName":"V-component_of_WINDS"},"data":[0,0,0,0,0,0,0,0,0,0,0,0,0,0,0,0,0,0,0,0,0,0,0,0,0,0,0,0,0,0,0,0,0,0,0,0,0,0,0,0,0,0,0,0,0,0,0,0,0,0,0,0,0,0,0,0,0,0,5.6574,5.6574,0,5.664,5.6641,5.6641,5.6567,5.6565,5.6562,5.6559,5.6622,5.6626,5.663,0,0,0,0,0,0,0,0,0,0,0,0,0,5.6378,5.6382,5.6574,5.6574,5.6575,5.664,5.6641,5.6641,5.6568,5.6564,5.6561,5.6558,5.662,5.6625,5.663,0,0,0,0,0,0,0,0,0,0,0,0,0,5.6456,5.6384,5.6573,5.6546,5.6545,5.664,5.6641,5.6642,5.6569,5.6564,5.656,5.6556,5.6618,5.6625,5.6631,5.6754,0,0,5.665,5.6653,0,0,0,0,0,0,0,0,5.6451,5.6463,5.655,5.6548,5.6547,5.6591,5.6594,5.6679,5.657,5.6559,5.6559,5.6554,5.6614,5.6621,5.6642,5.6757,5.6759,5.6651,5.6655,5.6658,5.6659,0,0,0,0,0,0,0,5.6446,5.6459,5.6599,5.6551,5.6549,5.6529,5.6536,5.661,5.6609,5.656,5.6555,5.6564,5.6613,5.6636,5.6643,5.676,5.6651,5.6656,5.666,5.6663,5.6979,5.6983,0,0,0,0,0,0,5.6444,5.6456,5.6597,5.6602,5.6488,5.6536,5.6543,5.6581,5.6608,5.6609,5.6567,5.656,5.6627,5.6636,5.6645,5.679,5.6658,5.6664,5.6667,5.6974,5.698,5.6985,0,0,0,0,0,0,5.6441,5.6458,5.6595,5.6527,5.6543,5.6544,5.6587,5.6585,5.6608,5.6614,5.6613,5.6592,5.6625,5.6636,5.6728,5.6791,5.6666,5.6672,5.6969,5.6976,5.6982,5.7082,0,0,0,0,0,0,5.6435,5.6457,5.6505,5.6529,5.6547,5.6678,5.6591,5.6589,5.662,5.6611,5.6637,5.6637,5.6622,5.6719,5.6734,5.6798,5.6677,5.6963,5.6972,5.698,5.7073,5.7092,5.7108,0,0,0,0,0,5.6429,5.6529,5.6508,5.6525,5.6607,5.6682,5.6692,5.6674,5.6625,5.6673,5.6677,5.6636,5.6783,5.6729,5.6745,5.6812,5.6959,5.6969,5.6979,5.7066,5.7088,5.7107,0,0,0,0,0,0,5.651,5.6532,5.6508,5.662,5.665,5.6669,5.6728,5.6699,5.6742,5.6732,5.6706,5.6713,5.681,5.682,5.676,5.6932,5.6862,5.6876,5.6922,5.6944,5.6961,5.6955,5.6683,0,0,0,0,0,5.6542,5.6602,5.6617,5.6714,5.6731,5.6728,5.6759,5.6743,5.6773,5.6784,5.6795,5.6823,5.6875,5.691,5.6959,5.7075,5.7079,5.7129,5.7146,5.716,5.7172,5.7234,5.7256,5.7018,5.7018,5.7018,0,0,5.6606,5.6626,5.6665,5.6731,5.6752,5.6814,5.6738,5.6807,5.6852,5.6794,5.6881,5.6891,5.692,5.7025,5.7071,5.7036,5.7239,5.7173,5.7185,5.7189,5.7247,5.7269,5.7289,5.7025,5.7024,5.7023,0,0,5.6755,5.6777,5.686,5.6884,5.6918,5.6915,5.6935,5.696,5.6964,5.7052,5.701,5.7062,5.7153,5.7176,5.72,5.736,5.7324,5.7376,5.7465,5.7525,5.7544,5.756,5.7616,5.7637,5.7388,5.7388,5.7389,0,5.6831,5.6924,5.6906,5.6978,5.7008,5.6961,5.7044,5.7067,5.7115,5.7136,5.7096,5.721,5.7227,5.7336,5.7375,5.7396,5.7417,5.7372,5.7543,5.7559,5.7574,5.7628,5.7649,5.7395,5.7394,5.7393,5.7393,0,5.7014,5.708,5.7142,5.7192,5.7229,5.7306,5.7298,5.7338,5.7319,5.732,5.741,5.7429,5.748,5.7505,5.7487,5.7612,5.7589,5.7547,5.7476,5.7604,5.7653,5.7673,5.7403,5.7401,5.7399,5.7398,0,0,5.7215,5.7255,5.7278,5.73,5.7335,5.7384,5.7459,5.7511,5.7545,5.758,5.7641,5.772,5.7681,5.7708,5.7692,5.7745,5.787,5.7696,5.7697,5.7727,5.8008,5.8038,5.8062,5.7847,5.7851,5.7854,5.8005,0,5.7364,5.7496,5.7483,5.7607,5.7666,5.7623,5.7688,5.7716,5.7719,5.7769,5.7771,5.7827,5.7773,5.7789,5.784,5.7844,5.7925,5.7833,5.7902,5.7904,5.7894,5.8088,5.8121,5.8262,5.8024,5.8027,5.803,0,5.7556,5.76,5.7731,5.7757,5.7781,5.784,5.7887,5.7936,5.7966,5.7964,5.7996,5.797,5.8044,5.7973,5.8073,5.801,5.8038,5.8044,5.8049,5.8054,5.7974,5.8097,5.8307,5.8328,5.806,5.8058,5.8056,0,5.7688,5.778,5.787,5.789,5.7923,5.7965,5.7981,5.8007,5.804,5.808,5.8101,5.8149,5.8175,5.8212,5.82,5.815,5.8303,5.823,5.8302,5.8303,5.8335,5.8333,5.8552,5.8355,5.8355,5.8354,5.8354,0,5.7855,5.7937,5.793,5.7985,5.8075,5.8058,5.8147,5.8157,5.8181,5.8236,5.8201,5.8254,5.8235,5.8286,5.8277,5.8361,5.8373,5.8373,5.8369,5.8376,5.8376,5.8392,5.8382,5.836,5.8359,5.8358,5.8357,0,5.8018,5.8017,5.8112,5.8136,5.8144,5.8209,5.8229,5.828,5.8282,5.8352,5.8368,5.8369,5.8427,5.842,5.8484,5.8478,5.8582,5.8567,5.8572,5.8569,5.864,5.8633,5.8876,5.8907,5.8692,5.8694,5.8696,0,5.8124,5.8186,5.8218,5.8254,5.8273,5.833,5.8364,5.835,5.8386,5.8425,5.8472,5.8527,5.8571,5.8666,5.8671,5.872,5.8705,5.8787,5.8712,5.8716,5.8705,5.8701,5.8707,5.8801,5.8804,5.8806,5.8807,0,5.8313,5.8309,5.836,5.8411,5.8453,5.8492,5.8527,5.8557,5.8547,5.8589,5.8649,5.8683,5.875,5.8805,5.8851,5.8865,5.8834,5.8831,5.885,5.8856,5.8857,5.8857,5.8612,5.8825,5.8823,5.8822,5.8821,5.882,5.845,5.8503,5.8534,5.8591,5.8617,5.8651,5.8701,5.8709,5.8759,5.8814,5.8802,5.887,5.8898,5.8958,5.8977,5.9028,5.8998,5.9026,5.9032,5.9039,5.9047,5.885,5.9037,5.9036,5.9036,5.9035,5.9035,0,5.8636,5.8654,5.8707,5.8759,5.8804,5.8774,5.8811,5.885,5.8911,5.8941,5.8985,5.9054,5.9108,5.9118,5.9169,5.9208,5.9195,5.9222,5.9218,5.9222,5.9072,5.905,5.9232,5.9231,5.9231,5.9231,5.9231,5.9231,5.8738,5.8826,5.8827,5.8927,5.8944,5.9012,5.9035,5.9066,5.909,5.9169,5.9214,5.9222,5.9244,5.9296,5.9343,5.9345,5.9364,5.9396,5.9392,5.9252,5.9232,5.9213,5.9193,5.9401,5.9401,5.9538,5.9539,5.954]}]]